Location: Go?cza
(50.3372°N, 19.9313°E)
Time: 22:14:00
(UTC+00:00)

Cosmos 1703 - Pass Details

Date: 23 May 2024
Orbit: 485 x 499 km, 82.5° (Epoch: 22 June)

Event Time Altitude Azimuth Distance (km) Brightness Sun altitude
Exits shadow 02:01:45 - 221° (SW) 1,912 5.4 -5.9°
Reaches altitude 10° 02:02:19 10° 224° (SW) 1,707 5.1 -5.8°
Maximum altitude 02:05:39 30° 288° (WNW) 915 4.2 -5.5°
Drops below altitude 10° 02:09:01 10° 351° (N) 1,715 6.3 -5.0°
Sets 02:11:20 0° 3° (N) 2,601 7.5 -4.8°
